CW3319 Weather Reports


Display with metric or nautical units.
time (UTC)temp
F
wind
direction
speed
MPH
gust
MPH
rain 1hr
in
rain 24hr
in
rain mn
in
humidity
%
barometer
mb
20260507003902 44 277 0.0 0.0 0.00 0.00 0.00 55 1014.2
20260507002932 44 266 0.0 0.0 0.00 0.00 0.00 54 1014.3
20260507001932 44 266 1.0 2.0 0.00 0.00 0.00 52 1014.4
20260507000902 44 285 2.0 2.0 0.00 0.00 0.00 55 1014.4
20260506235902 44 307 2.0 3.0 0.00 0.00 0.00 54 1014.4
20260506234902 44 292 0.0 1.0 0.00 0.00 0.00 54 1014.4
20260506233902 45 278 1.0 3.0 0.00 0.00 0.00 55 1014.6
20260506232902 45 277 0.0 1.0 0.00 0.00 0.00 53 1014.6
20260506231902 45 269 1.0 3.0 0.00 0.00 0.00 53 1014.6
20260506230902 45 269 1.0 2.0 0.00 0.00 0.00 52 1014.5
20260506225902 45 286 2.0 3.0 0.00 0.00 0.00 54 1014.6
20260506224902 45 274 1.0 1.0 0.00 0.00 0.00 55 1014.7
20260506223902 45 272 2.0 3.0 0.00 0.00 0.00 56 1014.7
20260506222902 44 265 1.0 2.0 0.00 0.00 0.00 54 1014.7
20260506221902 44 260 2.0 4.0 0.00 0.00 0.00 56 1014.8
20260506220902 45 255 3.0 4.0 0.00 0.00 0.00 55 1014.8
20260506215902 44 265 0.0 2.0 0.00 0.00 0.00 55 1014.9
20260506214932 45 277 2.0 3.0 0.00 0.00 0.00 56 1014.9
20260506213902 44 264 1.0 2.0 0.00 0.00 0.00 54 1015.0
20260506212902 44 270 2.0 3.0 0.00 0.00 0.00 54 1015.0
20260506211902 44 279 2.0 4.0 0.00 0.00 0.00 54 1015.0
20260506210902 44 273 3.0 4.0 0.00 0.00 0.00 55 1015.1
20260506205932 44 288 2.0 4.0 0.00 0.00 0.00 55 1015.2
20260506204932 44 308 1.0 2.0 0.00 0.00 0.00 55 1015.2
20260506203902 44 261 3.0 4.0 0.00 0.00 0.00 56 1015.2
20260506202902 44 274 0.0 1.0 0.00 0.00 0.00 53 1015.2
20260506201902 44 275 2.0 3.0 0.00 0.00 0.00 55 1015.2
20260506200932 43 287 2.0 4.0 0.00 0.00 0.00 54 1015.3
20260506194902 44 308 1.0 3.0 0.00 0.00 0.00 53 1015.3
20260506193902 44 282 2.0 3.0 0.00 0.00 0.00 55 1015.3
20260506192902 43 279 2.0 3.0 0.00 0.00 0.00 55 1015.4
20260506192002 43 269 1.0 2.0 0.00 0.00 0.00 54 1015.3
20260506190902 44 293 1.0 3.0 0.00 0.00 0.00 54 1015.4
20260506185902 44 264 2.0 2.0 0.00 0.00 0.00 53 1015.2
20260506184902 43 263 2.0 4.0 0.00 0.00 0.00 55 1015.3
20260506183902 43 287 2.0 4.0 0.00 0.00 0.00 54 1015.4
20260506182902 43 276 2.0 3.0 0.00 0.00 0.00 54 1015.4
20260506181902 44 279 2.0 3.0 0.00 0.00 0.00 55 1015.4
20260506180902 43 298 2.0 4.0 0.00 0.00 0.00 55 1015.4
20260506175902 42 276 2.0 4.0 0.00 0.00 0.00 55 1015.5
20260506174902 42 295 3.0 4.0 0.00 0.00 0.00 56 1015.5
20260506173902 42 286 2.0 3.0 0.00 0.00 0.00 57 1015.5
20260506172901 42 279 2.0 3.0 0.00 0.00 0.00 55 1015.6
20260506171902 42 280 2.0 3.0 0.00 0.00 0.00 56 1015.6
20260506170902 42 267 2.0 3.0 0.00 0.00 0.00 55 1015.8
20260506165902 42 289 2.0 3.0 0.00 0.00 0.00 55 1015.8
20260506164902 41 276 3.0 3.0 0.00 0.00 0.00 56 1015.8
20260506163932 41 276 1.0 4.0 0.00 0.00 0.00 56 1015.8
20260506162902 41 289 2.0 2.0 0.00 0.00 0.00 57 1015.7
20260506161931 41 288 3.0 6.0 0.00 0.00 0.00 58 1015.7
20260506160902 41 282 2.0 3.0 0.00 0.00 0.00 58 1015.8
20260506155902 41 285 1.0 2.0 0.00 0.00 0.00 57 1015.6
20260506154901 41 282 2.0 2.0 0.00 0.00 0.00 56 1015.7
20260506153933 41 286 2.0 3.0 0.00 0.00 0.00 57 1015.5
20260506152901 41 291 1.0 2.0 0.00 0.00 0.00 56 1015.4
20260506151903 41 272 3.0 4.0 0.00 0.00 0.00 56 1015.3
20260506150901 41 279 2.0 4.0 0.00 0.00 0.00 57 1015.4
20260506145902 41 289 1.0 2.0 0.00 0.00 0.00 56 1015.4
20260506144902 41 266 2.0 3.0 0.00 0.00 0.00 57 1015.4
20260506143902 41 296 1.0 2.0 0.00 0.00 0.00 57 1015.4
20260506142902 41 278 1.0 2.0 0.00 0.00 0.00 58 1015.3
20260506141903 41 289 2.0 3.0 0.00 0.00 0.00 59 1015.3
20260506140901 40 275 2.0 3.0 0.00 0.00 0.00 59 1015.4
20260506135902 40 328 1.0 2.0 0.00 0.00 0.00 61 1015.3
20260506134903 40 270 2.0 3.0 0.00 0.00 0.00 63 1015.2
20260506133901 39 289 2.0 3.0 0.00 0.00 0.00 64 1015.2
20260506132932 39 276 1.0 1.0 0.00 0.00 0.00 65 1015.1
20260506131902 38 277 0.0 0.0 0.00 0.00 0.00 66 1015.0
20260506130903 38 298 0.0 0.0 0.00 0.00 0.00 68 1015.0
20260506125901 37 312 1.0 3.0 0.00 0.00 0.00 69 1014.8
20260506124902 36 284 0.0 0.0 0.00 0.00 0.00 71 1014.7
20260506123903 36 283 0.0 1.0 0.00 0.00 0.00 72 1014.6
20260506122901 35 308 0.0 0.0 0.00 0.00 0.00 73 1014.7
20260506121903 35 286 0.0 0.0 0.00 0.00 0.00 73 1014.6
20260506120901 34 325 0.0 0.0 0.00 0.00 0.00 73 1014.4
20260506115901 34 338 0.0 0.0 0.00 0.00 0.00 74 1014.2
20260506114902 34 324 0.0 0.0 0.00 0.00 0.00 74 1014.1
20260506113903 34 324 0.0 0.0 0.00 0.00 0.00 74 1014.0
20260506112901 34 323 0.0 0.0 0.00 0.00 0.00 74 1013.8
20260506111901 34 281 0.0 0.0 0.00 0.00 0.00 75 1013.9
20260506110902 34 281 0.0 0.0 0.00 0.00 0.00 77 1014.0
20260506105902 34 281 0.0 0.0 0.00 0.00 0.00 76 1013.9
20260506104902 34 282 0.0 0.0 0.00 0.00 0.00 76 1013.9
20260506103933 33 282 0.0 0.0 0.00 0.00 0.00 79 1013.8
20260506102901 32 282 0.0 0.0 0.00 0.00 0.00 79 1013.7
20260506101902 32 282 0.0 0.0 0.00 0.00 0.00 78 1013.4
20260506100932 32 282 0.0 0.0 0.00 0.00 0.00 78 1013.4
20260506095902 32 282 0.0 0.0 0.00 0.00 0.00 77 1013.5
20260506094903 32 282 0.0 0.0 0.00 0.00 0.00 77 1013.4
20260506093902 32 282 0.0 0.0 0.00 0.00 0.00 77 1013.4
20260506092932 32 281 0.0 0.0 0.00 0.00 0.00 77 1013.5
20260506091902 32 285 0.0 0.0 0.00 0.00 0.00 77 1013.6
20260506090902 33 291 0.0 0.0 0.00 0.00 0.00 75 1013.5
20260506085902 33 343 0.0 0.0 0.00 0.00 0.00 74 1013.3
20260506084932 34 343 0.0 0.0 0.00 0.00 0.00 74 1013.1
20260506083902 34 343 0.0 0.0 0.00 0.00 0.00 74 1013.1
20260506082902 34 343 0.0 0.0 0.00 0.00 0.00 74 1013.2
20260506082002 34 343 0.0 0.0 0.00 0.00 0.00 73 1013.3
20260506080902 35 343 0.0 0.0 0.00 0.00 0.00 72 1013.3
20260506072903 36 317 0.0 0.0 0.00 0.00 0.00 68 1012.8
20260506071902 36 317 0.0 0.0 0.00 0.00 0.00 68 1012.8
20260506070932 37 317 0.0 0.0 0.00 0.00 0.00 68 1012.8
20260506061902 38 302 0.0 0.0 0.00 0.00 0.00 68 1012.8
20260506060902 38 338 0.0 0.0 0.00 0.00 0.00 67 1012.7
20260506050902 40 319 0.0 0.0 0.00 0.00 0.00 62 1012.2
20260506044901 40 10 1.0 3.0 0.00 0.00 0.00 60 1012.0
20260506043902 40 288 0.0 0.0 0.00 0.00 0.00 60 1012.0
20260506042902 41 306 0.0 0.0 0.00 0.00 0.00 59 1012.0
20260506041902 41 296 0.0 1.0 0.00 0.00 0.00 59 1012.0
20260506040902 41 304 0.0 1.0 0.00 0.00 0.00 59 1011.9
20260506035903 42 290 0.0 1.0 0.00 0.00 0.00 58 1011.8
20260506034933 42 302 0.0 1.0 0.00 0.00 0.00 58 1011.8
20260506033901 42 293 0.0 0.0 0.00 0.00 0.00 57 1011.8
20260506032903 42 274 1.0 2.0 0.00 0.00 0.00 56 1011.7
20260506031901 43 309 0.0 1.0 0.00 0.00 0.00 56 1011.8
20260506030901 43 299 1.0 2.0 0.00 0.00 0.00 56 1011.7
20260506025932 44 304 3.0 6.0 0.00 0.00 0.00 56 1011.6
20260506024902 44 326 2.0 4.0 0.00 0.00 0.00 54 1011.3
20260506023903 44 314 4.0 11.0 0.00 0.00 0.00 53 1011.2
20260506022931 44 337 2.0 3.0 0.00 0.00 0.00 53 1011.0
20260506021902 45 301 1.0 3.0 0.00 0.00 0.00 53 1010.9
20260506020901 45 335 0.0 1.0 0.00 0.00 0.00 52 1010.6
20260506015902 45 306 0.0 1.0 0.00 0.00 0.00 51 1010.4
20260506014902 46 322 1.0 3.0 0.00 0.00 0.00 50 1010.3
20260506013902 46 317 2.0 3.0 0.00 0.00 0.00 49 1010.2
20260506012903 47 279 1.0 3.0 0.00 0.00 0.00 49 1010.0
20260506011902 47 266 1.0 3.0 0.00 0.00 0.00 49 1009.9
20260506010902 47 316 0.0 1.0 0.00 0.00 0.00 47 1009.8
20260506005903 48 280 1.0 3.0 0.00 0.00 0.00 48 1009.8
20260506004901 48 292 2.0 3.0 0.00 0.00 0.00 47 1009.8